EW1617 Weather Reports


Display with metric or nautical units.
time (UTC)temp
F
wind
direction
speed
MPH
gust
MPH
rain 1hr
in
rain 24hr
in
rain mn
in
humidity
%
barometer
mb
20260504141007 54 153 8.0 10.0 0.00 0.00 0.00 98 1012.5
20260504140507 54 153 8.0 10.0 0.00 0.00 0.00 98 1012.4
20260504130506 55 153 7.0 8.0 0.00 0.00 0.00 97 1011.5
20260504110507 60 117 8.0 10.0 0.00 0.00 0.00 93 1009.6
20260504100506 62 162 7.0 10.0 0.00 0.00 0.00 92 1008.8
20260504082007 63 315 0.0 0.0 0.00 0.00 0.00 81 1008.1
20260504081507 63 315 0.0 0.0 0.00 0.00 0.00 81 1008.1
20260504081007 63 315 0.0 0.0 0.00 0.00 0.00 79 1008.1
20260504080506 64 315 0.0 0.0 0.00 0.00 0.00 77 1008.1
20260504050507 72 0 0.0 1.0 0.00 0.00 0.00 52 1007.1
20260504050007 73 0 0.0 0.0 0.00 0.00 0.00 53 1007.1
20260504045506 73 63 1.0 2.0 0.00 0.00 0.00 51 1007.1
20260504045007 73 327 1.0 5.0 0.00 0.00 0.00 52 1007.1
20260504044507 74 365 0.0 0.0 0.00 0.00 0.00 52 1007.0
20260504044007 74 365 0.0 0.0 0.00 0.00 0.00 51 1006.8
20260504043507 74 335 0.0 2.0 0.00 0.00 0.00 51 1006.8
20260504043008 75 315 0.0 0.0 0.00 0.00 0.00 50 1006.8
20260504042507 75 315 1.0 3.0 0.00 0.00 0.00 49 1006.8
20260504042006 76 225 0.0 1.0 0.00 0.00 0.00 49 1006.8
20260504041507 76 225 0.0 2.0 0.00 0.00 0.00 48 1006.8
20260504041007 77 225 0.0 1.0 0.00 0.00 0.00 46 1006.8
20260504040507 77 225 0.0 1.0 0.00 0.00 0.00 46 1006.6
20260504040006 77 216 2.0 5.0 0.00 0.00 0.00 45 1006.4
20260504035507 78 199 2.0 5.0 0.00 0.00 0.00 45 1006.4
20260504035007 78 262 1.0 3.0 0.00 0.00 0.00 46 1006.4
20260504034507 79 252 1.0 4.0 0.00 0.00 0.00 46 1006.4
20260504034007 79 315 0.0 1.0 0.00 0.00 0.00 45 1006.4
20260504033507 80 270 2.0 5.0 0.00 0.00 0.00 44 1006.2
20260504033008 80 288 3.0 5.0 0.00 0.00 0.00 43 1006.1
20260504032506 81 280 4.0 5.0 0.00 0.00 0.00 43 1006.1
20260504032008 81 315 2.0 4.0 0.00 0.00 0.00 42 1006.1
20260504031507 82 315 1.0 3.0 0.00 0.00 0.00 42 1006.1
20260504031007 82 315 2.0 6.0 0.00 0.00 0.00 40 1006.1
20260504030507 83 180 5.0 6.0 0.00 0.00 0.00 39 1006.1
20260504030007 83 285 4.0 5.0 0.00 0.00 0.00 39 1006.0
20260504025507 83 199 2.0 4.0 0.00 0.00 0.00 39 1005.8
20260504025007 84 262 3.0 5.0 0.00 0.00 0.00 38 1005.8
20260504024506 84 328 2.0 5.0 0.00 0.00 0.00 37 1005.8
20260504024007 85 279 3.0 7.0 0.00 0.00 0.00 37 1005.8
20260504023507 85 297 3.0 5.0 0.00 0.00 0.00 37 1005.8
20260504023008 85 108 3.0 7.0 0.00 0.00 0.00 36 1005.8
20260504022507 86 126 6.0 8.0 0.00 0.00 0.00 35 1005.8
20260504022007 86 279 2.0 5.0 0.00 0.00 0.00 36 1005.8
20260504021506 86 243 3.0 5.0 0.00 0.00 0.00 35 1005.8
20260504021007 86 297 5.0 6.0 0.00 0.00 0.00 35 1005.8
20260504020507 87 135 6.0 7.0 0.00 0.00 0.00 35 1005.8
20260504020007 87 226 5.0 5.0 0.00 0.00 0.00 35 1005.8
20260504015507 87 117 5.0 7.0 0.00 0.00 0.00 35 1005.8
20260504015007 87 150 5.0 6.0 0.00 0.00 0.00 34 1005.8
20260504014507 88 108 5.0 8.0 0.00 0.00 0.00 34 1005.8
20260504014007 88 207 5.0 7.0 0.00 0.00 0.00 34 1005.8
20260504013507 89 225 2.0 4.0 0.00 0.00 0.00 34 1005.9
20260504013008 89 340 3.0 6.0 0.00 0.00 0.00 35 1006.1
20260504012506 89 117 6.0 9.0 0.00 0.00 0.00 33 1006.1
20260504012007 89 272 7.0 8.0 0.00 0.00 0.00 33 1006.1
20260504011507 90 190 6.0 8.0 0.00 0.00 0.00 32 1006.1
20260504011007 91 316 6.0 9.0 0.00 0.00 0.00 32 1006.1
20260504010507 92 288 5.0 7.0 0.00 0.00 0.00 31 1006.1
20260504010007 93 207 5.0 7.0 0.00 0.00 0.00 31 1006.1
20260504005507 94 234 3.0 6.0 0.00 0.00 0.00 30 1006.1
20260504005007 94 270 3.0 7.0 0.00 0.00 0.00 29 1006.1
20260504004507 95 162 5.0 7.0 0.00 0.00 0.00 28 1006.2
20260504004006 95 208 6.0 8.0 0.00 0.00 0.00 29 1006.2
20260504003507 95 253 5.0 7.0 0.00 0.00 0.00 28 1006.2
20260504003008 95 252 3.0 5.0 0.00 0.00 0.00 28 1006.4
20260504002506 95 144 5.0 6.0 0.00 0.00 0.00 29 1006.4
20260504002007 95 280 3.0 6.0 0.00 0.00 0.00 29 1006.3
20260504001507 95 171 4.0 7.0 0.00 0.00 0.00 29 1006.4
20260504001007 95 226 6.0 8.0 0.00 0.00 0.00 28 1006.4
20260504000508 95 162 7.0 8.0 0.00 0.00 0.00 27 1006.4
20260504000007 96 144 5.0 6.0 0.00 0.00 0.00 28 1006.4
20260503235507 96 218 5.0 8.0 0.00 0.00 0.00 29 1006.4
20260503235007 95 270 6.0 8.0 0.00 0.00 0.00 29 1006.4
20260503234507 95 244 6.0 9.0 0.00 0.00 0.00 30 1006.4
20260503234007 96 243 5.0 6.0 0.00 0.00 0.00 29 1006.4
20260503233508 95 254 5.0 6.0 0.00 0.00 0.00 30 1006.6
20260503233007 95 261 2.0 6.0 0.00 0.00 0.00 30 1006.8
20260503232507 96 217 6.0 7.0 0.00 0.00 0.00 30 1006.8
20260503232007 95 126 5.0 6.0 0.00 0.00 0.00 30 1006.8
20260503231507 95 189 4.0 6.0 0.00 0.00 0.00 30 1006.8
20260503231007 96 217 6.0 9.0 0.00 0.00 0.00 30 1006.8
20260503230506 95 144 6.0 7.0 0.00 0.00 0.00 31 1007.0
20260503230007 95 234 5.0 7.0 0.00 0.00 0.00 30 1007.1
20260503225507 96 154 5.0 6.0 0.00 0.00 0.00 31 1007.1
20260503225006 96 144 4.0 6.0 0.00 0.00 0.00 31 1007.1
20260503224507 96 153 6.0 7.0 0.00 0.00 0.00 29 1007.4
20260503224007 96 189 4.0 5.0 0.00 0.00 0.00 31 1007.5
20260503223507 96 81 3.0 5.0 0.00 0.00 0.00 31 1007.5
20260503223008 96 108 5.0 7.0 0.00 0.00 0.00 32 1007.5
20260503222507 96 100 6.0 7.0 0.00 0.00 0.00 29 1007.5
20260503222007 95 180 5.0 6.0 0.00 0.00 0.00 31 1007.8
20260503221507 95 259 6.0 6.0 0.00 0.00 0.00 31 1007.8
20260503221007 95 225 5.0 8.0 0.00 0.00 0.00 31 1007.8
20260503220507 95 135 6.0 8.0 0.00 0.00 0.00 32 1007.9
20260503220007 95 244 5.0 6.0 0.00 0.00 0.00 33 1008.1
20260503215507 95 308 5.0 7.0 0.00 0.00 0.00 33 1008.1
20260503215006 94 235 6.0 8.0 0.00 0.00 0.00 33 1008.1
20260503214507 94 117 5.0 7.0 0.00 0.00 0.00 33 1008.1
20260503214007 94 270 7.0 9.0 0.00 0.00 0.00 34 1008.1
20260503213507 94 244 5.0 6.0 0.00 0.00 0.00 34 1008.5
20260503213008 94 145 5.0 6.0 0.00 0.00 0.00 34 1008.5
20260503212508 94 124 3.0 6.0 0.00 0.00 0.00 35 1008.5
20260503212007 93 54 1.0 5.0 0.00 0.00 0.00 35 1008.5
20260503211507 93 216 5.0 8.0 0.00 0.00 0.00 36 1008.5
20260503211007 92 180 2.0 5.0 0.00 0.00 0.00 36 1008.7
20260503210507 92 225 2.0 5.0 0.00 0.00 0.00 38 1008.8
20260503210007 92 27 4.0 7.0 0.00 0.00 0.00 38 1008.8
20260503205507 91 189 3.0 5.0 0.00 0.00 0.00 39 1008.9
20260503205007 91 327 3.0 8.0 0.00 0.00 0.00 38 1009.1
20260503204507 90 345 2.0 5.0 0.00 0.00 0.00 39 1009.1
20260503204007 90 217 3.0 5.0 0.00 0.00 0.00 40 1009.1
20260503203507 89 72 4.0 7.0 0.00 0.00 0.00 41 1009.2
20260503203007 88 136 4.0 7.0 0.00 0.00 0.00 42 1009.4
20260503202507 88 181 5.0 10.0 0.00 0.00 0.00 42 1009.5
20260503202008 88 225 5.0 7.0 0.00 0.00 0.00 43 1009.5
20260503201507 87 252 6.0 7.0 0.00 0.00 0.00 43 1009.5
20260503201008 87 199 5.0 9.0 0.00 0.00 0.00 44 1009.5
20260503200507 86 126 4.0 8.0 0.00 0.00 0.00 45 1009.8
20260503200006 86 207 5.0 7.0 0.00 0.00 0.00 46 1009.8
20260503195507 85 279 6.0 7.0 0.00 0.00 0.00 46 1009.8
20260503195007 85 99 6.0 8.0 0.00 0.00 0.00 45 1009.8
20260503194507 85 144 6.0 10.0 0.00 0.00 0.00 45 1010.1
20260503194006 85 162 4.0 8.0 0.00 0.00 0.00 45 1010.2
20260503193507 85 108 3.0 6.0 0.00 0.00 0.00 46 1010.2
20260503193008 84 135 3.0 8.0 0.00 0.00 0.00 48 1010.2
20260503192507 83 234 6.0 6.0 0.00 0.00 0.00 48 1010.4
20260503192007 83 171 5.0 8.0 0.00 0.00 0.00 48 1010.5
20260503191507 82 171 4.0 5.0 0.00 0.00 0.00 49 1010.5
20260503191007 81 346 2.0 4.0 0.00 0.00 0.00 52 1010.5
20260503190507 80 99 2.0 4.0 0.00 0.00 0.00 51 1010.7
20260503190006 80 18 5.0 8.0 0.00 0.00 0.00 52 1010.8
20260503185507 79 207 2.0 4.0 0.00 0.00 0.00 54 1010.8
20260503185007 78 90 3.0 6.0 0.00 0.00 0.00 55 1010.8
20260503184507 78 262 5.0 5.0 0.00 0.00 0.00 56 1011.0
20260503184007 77 306 3.0 6.0 0.00 0.00 0.00 58 1011.2
20260503183507 76 243 1.0 5.0 0.00 0.00 0.00 59 1011.2
20260503183007 76 225 1.0 5.0 0.00 0.00 0.00 59 1011.2
20260503182507 75 270 3.0 7.0 0.00 0.00 0.00 60 1011.2
20260503182007 75 308 0.0 1.0 0.00 0.00 0.00 61 1011.2
20260503181507 74 272 3.0 6.0 0.00 0.00 0.00 62 1011.5
20260503181008 74 279 4.0 6.0 0.00 0.00 0.00 62 1011.5
20260503180508 73 365 0.0 1.0 0.00 0.00 0.00 65 1011.5
20260503180007 73 227 4.0 6.0 0.00 0.00 0.00 67 1011.5
20260503175507 72 248 5.0 9.0 0.00 0.00 0.00 68 1011.5
20260503175007 72 54 3.0 5.0 0.00 0.00 0.00 74 1011.5
20260503174506 71 252 1.0 5.0 0.00 0.00 0.00 75 1011.6
20260503174007 71 225 1.0 4.0 0.00 0.00 0.00 77 1011.9
20260503173508 70 225 0.0 0.0 0.00 0.00 0.00 75 1011.9
20260503173007 70 280 6.0 7.0 0.00 0.00 0.00 76 1011.9
20260503172507 70 307 3.0 5.0 0.00 0.00 0.00 83 1011.9
20260503172007 69 234 2.0 7.0 0.00 0.00 0.00 84 1011.9
20260503171507 69 234 1.0 4.0 0.00 0.00 0.00 87 1011.9
20260503171006 68 306 3.0 5.0 0.00 0.00 0.00 89 1011.9
20260503170507 68 248 1.0 1.0 0.00 0.00 0.00 90 1011.9
20260503151007 56 0 0.0 0.0 0.00 0.00 0.00 99 1012.5
20260503150507 56 0 0.0 0.0 0.00 0.00 0.00 99 1012.5